Weather in Ivantsevo

Russia / Ivanovo Oblast     57°06′13″N   40°53′56″E
temp.,
°C
wind,
m/s
gust,
m/s
humid.,
%
clouds,
%
prec.,
mm/h
press.,
hPa
HPBL,
m
19 september, sun
sun1900:00+1ene2284100 0.0 102712
03:00+1ene2383100 0.0 102764
06:000ene2585100 0.0 102796
09:00+5ene366490 0.0 1027400
12:00+8e4549100 0.0 10271104
15:00+9e4647100 0.0 10261165
18:00+7e3859100 0.0 1026309
21:00+4ene31172100 0.0 1025267
20 september, mon
mon2000:00+4e41273100 0.0 1026414
03:00+3ene61378100 0.0 1025486
06:00+3e61475100 0.0 1025588
09:00+4e71468100 0.0 1025704
12:00+6e71261100 0.0 10251061
15:00+7e71261100 0.0 10241035
18:00+7e61257100 0.0 10241131
21:00+5ese71375100 0.5 1024876
21 september, tue
tue2100:00+6e61365100 0.1 1023815
03:00+6e61361100 0.3 1021737
06:00+4e61487100 1.4 1021602
09:00+4e61593100 3.8 1020658
12:00+5e71590100 1.6 1020688
15:00+5ese61487100 1.8 1020750
18:00+6ese61481100 0.0 1019794
21:00+6ese61379100 0.0 1019770
22 september, wed
wed2200:00+7e51275100 0.0 1018741
03:00+7e61274100 0.0 1018678
06:00+7e51272100 0.3 1017670
09:00+5e61391100 2.5 1018648
12:00+6e51193100 1.3 1019662
15:00+6e51194100 2.9 1019620
18:00+7e31094100 0.7 1020489
21:00+7ene2897100 0.9 1020325
23 september, thu
thu2300:00+8e3897100 0.3 1019437
03:00+7e2598100 0.5 1019269
06:00+7e2398100 0.0 1018165
09:00+8ese2395100 0.0 1018240
12:00+11ese238399 0.0 1017560
15:00+12ese3481100 0.1 1017785
18:00+10ese2597100 0.1 1016239
21:00+9e2797100 0.1 1016215